Regional Weather Roundup
Issued by NWS

Home | Current Version | Previous Version | Text Only | Print | Product List | Glossary On
Versions: 1 2 3 4 5 6 7 8 9 10 11 12 13 14 15 16 17 18 19 20 21 22 23 24 25 26 27 28 29 30 31 32 33 34 35 36 37 38 39 40 41 42 43 44 45 46 47 48 49 50
000
ASUS43 KTOP 230259
RWRKS

WEATHER ROUNDUP FOR KANSAS
NATIONAL WEATHER SERVICE GOODLAND KS
900 PM CST SAT NOV 22 2014

NOTE:  "FAIR" INDICATES FEW OR NO CLOUDS BELOW 12,000 FEET WITH NO
SIGNIFICANT WEATHER AND/OR OBSTRUCTIONS TO VISIBILITY.

KSZ001>006-013>018-027>032-041>047-230400-
NORTHWEST KANSAS

CITY           SKY/WX    TMP DP  RH WIND       PRES   REMARKS
GOODLAND       CLOUDY    48  25  40 S10       29.52F
HAYS           CLOUDY    55  48  76 S20G31    29.58S
HILL CITY      PTCLDY    52  48  86 S13       29.55S
RUSSELL        CLOUDY    57  52  83 S23G31    29.58R
$$

KSZ061>065-074>080-084>089-230400-
SOUTHWEST KANSAS

CITY           SKY/WX    TMP DP  RH WIND       PRES   REMARKS
DODGE CITY     CLOUDY    54  49  83 S30G40    29.61R
ELKHART          N/A    N/A N/A N/A MISG        N/A
GARDEN CITY    CLOUDY    51  48  89 S24G33    29.57R
GREAT BEND     CLOUDY    55  48  76 S29G38    29.60S
LIBERAL        CLOUDY    54  45  71 S24G32    29.62S
$$

KSZ066>073-081>083-090>101-230400-
SOUTHEAST KANSAS

CITY           SKY/WX    TMP DP  RH WIND       PRES   REMARKS
CHANUTE        CLOUDY    56  52  86 S18       29.76F
COFFEYVILLE    CLOUDY    55  52  89 S10       29.76F
HUTCHINSON     CLOUDY    55  51  86 S15       29.66F
MEDICINE LODGE   N/A     53  52  96 S10G18    29.65F
NEWTON         CLOUDY    54  48  82 S18       29.69F
PARSONS        MOCLDY    55  52  89 S9        29.77F
WICHITA INTL   CLOUDY    54  51  90 S17       29.69F
WICHITA JABRA  CLOUDY    54  51  90 S16G22    29.69F
WINFIELD       CLOUDY    52  51  97 S9        29.72F
$$

KSZ007>012-019>026-033>040-048>060-102>105-230400-
NORTHEAST KANSAS

CITY           SKY/WX    TMP DP  RH WIND       PRES   REMARKS
CONCORDIA      CLOUDY    58  54  86 S18G28    29.59F
EMPORIA        CLOUDY    54  52  93 S22G31    29.70F
LAWRENCE       CLOUDY    56  50  80 S13       29.73S
MANHATTAN      CLOUDY    57  53  86 S17G25    29.65S
OLATHE IND     CLOUDY    54  51  90 S14G21    29.74F
OLATHE EXE     CLOUDY    55  51  86 S15G26    29.73F
SALINA         CLOUDY    58  53  84 S15G25    29.62F
TOPEKA BILLARD CLOUDY    57  53  86 S15G28    29.70F
TOPEKA FORBES  CLOUDY    56  51  84 S16G25    29.70S
$$



USA.gov is the U.S. government's official web portal to all federal, state and local government web resources and services.